Regional Weather Roundup
Issued by NWS

Home | Current Version | Previous Version | Text Only | Print | Product List | Glossary On
Versions: 1 2 3 4 5 6 7 8 9 10 11 12 13 14 15 16 17 18 19 20 21 22 23 24 25 26 27 28 29 30 31 32 33 34 35 36 37 38 39 40 41 42 43 44 45 46 47 48 49 50
000
ASUS43 KFSD 230502
RWRSD

WEATHER ROUNDUP FOR SOUTH DAKOTA
NATIONAL WEATHER SERVICE SIOUX FALLS SD
1200 AM CDT SAT AUG 23 2014

NOTE: "FAIR" INDICATES FEW OR NO CLOUDS BELOW 12,000 FEET WITH NO
SIGNIFICANT WEATHER AND/OR OBSTRUCTIONS TO VISIBILITY.


SDZ001>005-009-010-012>017-230600-
NORTHWEST AND NORTH CENTRAL SOUTH DAKOTA

CITY           SKY/WX    TMP DP  RH WIND       PRES   REMARKS
BUFFALO          N/A     66  60  81 E17       29.97F
FAITH            N/A     66  62  87 NE12      30.02F
MOBRIDGE       MOCLDY    68  66  93 NE13      30.01F
$$

SDZ012>016-024>037-041>051-057-063-072>074-230600-
SOUTHWEST AND SOUTH CENTRAL SOUTH DAKOTA

CITY           SKY/WX    TMP DP  RH WIND       PRES   REMARKS
RAPID CTY ARPT CLOUDY    67  64  90 NE9       30.00F
PIERRE         CLOUDY    70  67  90 E14       29.96F
ELLSWORTH AFB  CLOUDY    68  64  89 E10       30.00F
PHILIP         CLOUDY    70  64  81 E14       29.97S
PINE RIDGE     CLOUDY    67  58  72 SW3       29.99F
WINNER         FAIR      73  68  84 E3        29.97F
$$

SDZ004>011-016>023-039-040-230600-
NORTHEAST SOUTH DAKOTA

CITY           SKY/WX    TMP DP  RH WIND       PRES   REMARKS
ABERDEEN       MOCLDY    67  66  97 NE12      30.05R
WATERTOWN      CLOUDY    69  67  93 NE10      30.05R
SISSETON         N/A     67  66  97 NW6       30.05R
$$

SDZ017-020-022-023-036>040-048>070-230600-
SOUTHEAST SOUTH DAKOTA

CITY           SKY/WX    TMP DP  RH WIND       PRES   REMARKS
SIOUX FALLS    CLOUDY    74  69  85 E7        29.97F
HURON          CLOUDY    74  68  81 E14       29.98F
CHAMBERLAIN    DRIZZLE   71  69  93 E8        29.95F
MITCHELL       CLOUDY    73  70  90 E5        29.96F
YANKTON        CLOUDY    73  72  94 E3        29.95S
$$

ABBREVIATIONS USED IN REMARKS
   TC - TEMPERATURE IN CELSIUS
  WCI - WIND CHILL INDEX
   HX - HEAT INDEX
  VSB - VISIBILITY



USA.gov is the U.S. government's official web portal to all federal, state and local government web resources and services.